This demonstration page uses our WeatherBlox Daily Observations layout. Learn more.

Left ArrowRight Arrow

30.21309, -93.2044

Hourly Observations for March 25, 2015

Temp ( °F °C ) Dew Point ( °F °C ) Humidity (%) Winds ( mph kmh ) Pressure ( in mb ) Visibility ( mi km ) Precip ( " mm )
12:15 am 00:15 Clear 56 13.3 55 12.8 97 97 S 5 7 30.03 1017 10 16 0.00 0.00
12:35 am 00:35 Clear 56 13.1 55 12.6 97 97 SSE 5 7 30.03 1017 10 16 0.00 0.00
12:55 am 00:55 Clear 56 13.3 56 13.1 99 99 SSE 5 7 30.03 1017 7 11 0.00 0.00
1:15 am 01:15 Clear with Mist and Fog 56 13.4 56 13.3 99 99 SSE 3 6 30.03 1017 5 8 0.00 0.00
1:35 am 01:35 Clear with Mist and Fog 56 13.5 56 13.5 100 100 SSE 3 6 30.03 1017 5 8 0.00 0.00
1:55 am 01:55 Mostly Cloudy with Mist and Fog 54 12.1 54 12 99 99 SSE 5 7 30.03 1017 1 2 0.00 0.00
2:15 am 02:15 Clear with Mist and Fog 54 12.1 54 12 99 99 Calm 30.03 1017 4 6 0.00 0.00
2:35 am 02:35 Clear with Mist and Fog 55 12.8 55 12.8 100 100 Calm 30.03 1017 3 4 0.00 0.00
2:55 am 02:55 Mostly Cloudy with Mist and Fog 56 13.2 56 13.1 99 99 Calm 30.00 1016 1 2 0.00 0.00
3:15 am 03:15 Mostly Cloudy with Mist and Fog 56 13.2 56 13.2 100 100 Calm 30.00 1016 1 2 0.00 0.00
3:35 am 03:35 Mostly Cloudy with Mist and Fog 55 12.9 55 12.9 100 100 Calm 30.03 1017 2 2 0.00 0.00
3:55 am 03:55 Cloudy with Mist and Fog 55 12.5 55 12.5 100 100 Calm 30.00 1016 2 2 0.00 0.00
4:15 am 04:15 Mostly Cloudy with Mist and Fog 55 12.6 55 12.5 99 99 Calm 30.00 1016 3 5 0.00 0.00
4:35 am 04:35 Partly Cloudy with Mist and Fog 55 12.5 55 12.5 100 100 Calm 30.00 1016 5 8 0.00 0.00
4:55 am 04:55 Partly Cloudy with Mist and Fog 54 12.2 54 12.1 99 99 Calm 30.03 1017 4 6 0.00 0.00
5:15 am 05:15 Mostly Cloudy with Mist and Fog 55 12.9 55 12.7 99 99 Calm 30.03 1017 5 8 0.00 0.00
6:00 am 06:00 Mostly Clear 57 14 57 14 100 100 Calm 30.03 1017 10 16 0.00 0.00
6:55 am 06:55 Mostly Cloudy with Mist and Fog 54 12 54 12 100 100 Calm 30.03 1017 4 6 0.00 0.00
9:50 am 09:50 Partly Cloudy 68 20 63 17 83 83 SSE 3 6 30.06 1018 10 16 0.00 0.00
10:50 am 10:50 Partly Cloudy 70 21 61 16 73 73 Calm 30.06 1018 10 16 0.00 0.00
2:50 pm 14:50 Partly Cloudy 77 25 61 16 57 57 SE 8 13 30.00 1016 10 16 0.00 0.00
3:50 pm 15:50 Partly Cloudy 79 26 61 16 54 54 SE 12 19 29.97 1015 10 16 0.00 0.00
4:50 pm 16:50 Mostly Cloudy 75 24 61 16 61 61 S 12 19 29.97 1015 10 16 0.00 0.00
5:50 pm 17:50 Mostly Cloudy 73 23 61 16 65 65 S 12 19 29.97 1015 10 16 0.00 0.00
6:50 pm 18:50 Mostly Sunny 72 22 61 16 69 69 S 9 15 29.97 1015 10 16 0.00 0.00
7:50 pm 19:50 Mostly Clear 68 20 59 15 73 73 S 8 13 29.97 1015 10 16 0.00 0.00
8:50 pm 20:50 Mostly Clear 64 18 59 15 83 83 S 7 11 29.97 1015 10 16 0.00 0.00
9:50 pm 21:50 Mostly Clear 61 16 59 15 94 94 SSE 6 9 29.97 1015 10 16 0.00 0.00
10:15 pm 22:15 Clear 59 15 58 14.2 95 95 Calm 29.97 1015 10 16 0.00 0.00
10:35 pm 22:35 Clear 59 15 58 14.3 96 96 S 3 6 29.97 1015 10 16 0.00 0.00
10:55 pm 22:55 Clear 59 14.9 58 14.4 97 97 SSE 5 7 29.97 1015 10 16 0.00 0.00
11:15 pm 23:15 Clear 60 15.3 59 15 98 98 SSE 3 6 29.97 1015 10 16 0.00 0.00
11:35 pm 23:35 Clear 60 15.6 59 15.1 97 97 Calm 29.94 1014 10 16 0.00 0.00
11:55 pm 23:55 Clear 58 14.7 58 14.5 99 99 SSE 6 9 29.94 1014 7 11 0.00 0.00

Powered by AerisWeather